FENGYUN 1C DEB, 30759

Orbit data source: Space-Track

FENGYUN 1C DEB, 30759 is space debris in SSO originally from a launch on Mon, 10 May 1999 UTC launched from the Taiyaun Space Center, China (TSC). Fengyun 1C debris stems from the Chinese weather satellite Fengyun-1C, which was intentionally destroyed by a Chinese anti-satellite missile in 2007. This event dramatically increased the amount of space debris, with thousands of trackable fragments posing hazards to satellites and human spaceflight. The Fengyun 1C debris cloud has become a focal point in discussions about space sustainability and the need for international regulations to prevent the creation of new debris.

Loading next visibility...
Identifier
30759, 1999-025ATV
Orbit
SSO
Country
Flag of CNCN / PRC
Related business
Manufacturer
Unknown
Mission
Spacecraft
Bus & Motor
Unknown
Mass
Unknown
Launch date (UTC)
1999-05-10 (27 years ago)
Launch vehicle
Unknown
Launch site
Taiyaun Space Center, China (TSC)
Object type
Payload
Rocket body
Debris
Shape & HBR
Unknown shape, 0.1 m
Radar Cross Section
Medium (>0.1 m² and <1 m²)

Expand to show TLE details & history
Last TLE update: 1 week ago

TLE from 1 week ago
0 FENGYUN 1C DEB
1 30759U 99025ATV 26153.33990693  .00010366  00000-0  22368-2 0  9997
2 30759  99.2632 284.9210 0007038  23.5849  31.1910 14.58568338  1548
Epoch: 2026-06-02T08:09Z
TLE epoch observation values (Epoch: 2026-06-02T08:09:27.958Z)
Latitude
53.87432°
Longitude
-101.101°
Altitude
702.355 km
Speed
7.512 km/s
True Right ascension
18h 08m 19s
True Declination
53° 42' 33"
Sunlit
Object was in daylight at epoch
Visualization orbit readout
Latitude
Unknown
Longitude
Unknown
Altitude
Unknown
Speed
Unknown
Apparent Right ascension
Unknown
Apparent Declination
Unknown
Sunlit
N/A
Visualization observer readout
Local Sidereal Time
07:05:39
Azimuth
Unknown
Elevation
Unknown
Doppler factor
Unknown
Orbital elements
Apogee altitude
699.914 km
Perigee altitude
689.958 km
Semi-major axis
7,073.073 km
Eccentricity
0.0007
Inclination
99.2632°
RAAN
284.921°
Arg. of periapsis
23.5849°
True anomaly
31.2328°
Mean anomaly
31.191°
Eccentric anomaly
31.2119°
Mean motion
3.64864 °/min
Orbital period
98.67 mins
BSTAR
0.0022368
Loading maneuver chart data...
Computing Atmospheric mass density...
Loading historical data...
Loading historical data...
Loading historical data...
Loading historical data...
Loading historical data...
Loading historical data...
Loading historical data...

Documentation

Showing up to 5 results
|